GW3498 Weather Reports


Display with metric or nautical units.
time (UTC)temp
F
wind
direction
speed
MPH
gust
MPH
rain 1hr
in
rain 24hr
in
rain mn
in
humidity
%
barometer
mb
20260903170534 83 353 2.0 3.0 0.00 0.00 0.00 51 1016.8
20260903165520 84 11 1.0 4.0 0.00 0.00 0.00 49 1016.9
20260903164536 85 358 3.0 6.0 0.00 0.00 0.00 47 1016.7
20260903163545 86 359 3.0 9.0 0.00 0.00 0.00 46 1016.7
20260903162518 87 230 1.0 3.0 0.00 0.00 0.00 44 1016.8
20260903161614 88 25 1.0 7.0 0.00 0.00 0.00 42 1016.8
20260903160528 89 244 2.0 6.0 0.00 0.00 0.00 40 1016.6
20260903155522 89 326 1.0 3.0 0.00 0.00 0.00 40 1016.5
20260903154516 89 285 2.0 7.0 0.00 0.00 0.00 40 1016.5
20260903153551 89 257 2.0 6.0 0.00 0.00 0.00 39 1016.4
20260903152525 91 222 3.0 6.0 0.00 0.00 0.00 37 1016.3
20260903151520 92 233 2.0 6.0 0.00 0.00 0.00 34 1016.2
20260903150535 92 206 1.0 3.0 0.00 0.00 0.00 33 1016.3
20260903145530 92 231 2.0 6.0 0.00 0.00 0.00 33 1016.3
20260903144526 93 203 2.0 7.0 0.00 0.00 0.00 31 1016.2
20260903143519 93 175 1.0 3.0 0.00 0.00 0.00 31 1016.4
20260903142555 92 241 2.0 7.0 0.00 0.00 0.00 31 1016.4
20260903141528 93 227 2.0 6.0 0.00 0.00 0.00 31 1016.3
20260903140544 93 253 1.0 6.0 0.00 0.00 0.00 31 1016.4
20260903135538 92 212 2.0 4.0 0.00 0.00 0.00 32 1016.5
20260903134532 92 264 2.0 3.0 0.00 0.00 0.00 33 1016.6
20260903133526 92 236 2.0 4.0 0.00 0.00 0.00 32 1016.5
20260903132520 92 246 1.0 3.0 0.00 0.00 0.00 32 1016.8
20260903131535 92 253 2.0 7.0 0.00 0.00 0.00 32 1016.9
20260903130529 91 195 2.0 6.0 0.00 0.00 0.00 34 1016.8
20260903125543 91 197 1.0 3.0 0.00 0.00 0.00 34 1016.8
20260903124519 92 221 1.0 3.0 0.00 0.00 0.00 33 1017.2
20260903123534 91 229 2.0 8.0 0.00 0.00 0.00 33 1017.2
20260903122529 90 191 2.0 6.0 0.00 0.00 0.00 35 1017.3
20260903121524 90 204 2.0 4.0 0.00 0.00 0.00 35 1017.3
20260903120519 89 203 2.0 4.0 0.00 0.00 0.00 36 1017.3
20260903115534 89 227 1.0 3.0 0.00 0.00 0.00 37 1017.3
20260903114529 89 213 2.0 6.0 0.00 0.00 0.00 37 1017.3
20260903113524 89 197 2.0 7.0 0.00 0.00 0.00 37 1017.4
20260903112518 89 206 1.0 3.0 0.00 0.00 0.00 38 1017.5
20260903111553 89 337 1.0 4.0 0.00 0.00 0.00 38 1017.5
20260903110527 89 224 2.0 7.0 0.00 0.00 0.00 37 1017.7
20260903105522 87 178 1.0 3.0 0.00 0.00 0.00 39 1017.7
20260903104516 88 247 1.0 4.0 0.00 0.00 0.00 38 1017.8
20260903103551 87 345 1.0 3.0 0.00 0.00 0.00 40 1017.7
20260903102525 87 176 2.0 4.0 0.00 0.00 0.00 42 1018.0
20260903101542 87 207 1.0 4.0 0.00 0.00 0.00 41 1017.9
20260903100534 86 262 2.0 4.0 0.00 0.00 0.00 45 1018.0
20260903095552 87 214 1.0 6.0 0.00 0.00 0.00 45 1018.1
20260903094524 86 233 1.0 4.0 0.00 0.00 0.00 45 1018.2
20260903093518 86 217 1.0 3.0 0.00 0.00 0.00 43 1018.3